Location: Newark
(48.1236°N, 0.7169°W)
Time: 10:36:47
(UTC+00:00)

Envisat - Pass Details

Date: 26 November 2019
Orbit: 764 x 766 km, 98.1° (Epoch: 08 December)

Event Time Altitude Azimuth Distance (km) Brightness Sun altitude
Rises 17:56:04 0° 166° (SSE) 3,219 6.2 -16.4°
Reaches altitude 10° 17:58:22 10° 168° (SSE) 2,297 5.5 -16.8°
Maximum altitude 18:03:26 83° 257° (WSW) 778 3.0 -17.6°
Drops below altitude 10° 18:08:33 10° 345° (NNW) 2,313 5.5 -18.5°
Sets 18:10:52 0° 346° (NNW) 3,244 6.3 -18.8°
